Links & Downloads

Hier präsentieren wir eine Auswahl wichtiger Downloads und interessanter Internetseiten. Wir versuchen, diese Seite immer auf aktuellem Stand zu halten.

Dokumente & Programme

  FluPP, ein kostenloses Flugbuch für Windows, mit dem man seine Flüge (Segelflug, Ultraleicht, Motorsegler, Motorflug...) verwalten kann
 
OLC - SegelflugszeneOLC - Segelflugszene

  Alle Streckenflüge des VfS |   Streckenflüge ab Krefeld |   Landesliga - Tabelle

Wetter


METAR / TAF Düsseldorf

[Quelle: ADDS]
METAR
EDDL 161620Z 25005KT 220V340 9999 SCT036 20/11 Q1017 NOSIG =
EDDL 161100Z 1612/1718 29007KT 9999 BKN020 BECMG 1618/1621 VRB03KT BECMG 1711/1713 35005KT
TAF
EDDL 161100Z 1612/1718 29007KT 9999 BKN020 BECMG 1618/1621 VRB03KT BECMG 1711/1713 35005KT =
SR / SS: 03:36 / 19:41 UTC ( 2019-07-16)

Luftsportportale

Verbände

Behörden

 
Bundesamt für Naturschutz:
Gebiete mit Vogelvorkommen mit besonderer Luftfahrtrelevanz (Aircraft relevant Bird Area)
1.   Allgemein
2.   Niederrhein

Fliegerärzte

Vereinsflieger